EW0765 Weather Reports


Display with metric or nautical units.
time (UTC)temp
F
wind
direction
speed
MPH
gust
MPH
rain 1hr
in
rain 24hr
in
rain mn
in
humidity
%
barometer
mb
20260906144523 72 98 2.0 7.0 0.00 0.18 0.00 76 1017.8
20260906143020 72 92 1.0 7.0 0.00 0.18 0.00 79 1017.7
20260906141512 70 32 1.0 8.0 0.00 0.18 0.00 83 1017.7
20260906140008 68 84 1.0 6.0 0.00 0.18 0.00 88 1017.5
20260906134504 65 87 0.0 3.0 0.00 0.18 0.00 94 1017.4
20260906133117 64 82 0.0 3.0 0.00 0.18 0.00 96 1017.4
20260906131556 62 67 0.0 0.0 0.00 0.18 0.00 96 1017.5
20260906130103 61 67 0.0 0.0 0.00 0.18 0.00 96 1017.3
20260906124551 59 68 0.0 0.0 0.00 0.18 0.00 96 1017.2
20260906123049 58 68 0.0 0.0 0.00 0.18 0.00 95 1017.0
20260906121548 57 67 0.0 0.0 0.00 0.18 0.00 95 1016.9
20260906120049 57 67 0.0 0.0 0.00 0.18 0.00 94 1016.9
20260906114555 56 67 0.0 0.0 0.00 0.18 0.00 94 1016.9
20260906113043 56 67 0.0 0.0 0.00 0.18 0.00 94 1016.6
20260906111541 56 68 0.0 0.0 0.00 0.18 0.00 94 1016.3
20260906110039 56 67 0.0 0.0 0.00 0.18 0.00 94 1016.2
20260906104547 56 67 0.0 0.0 0.00 0.18 0.00 94 1016.2
20260906103038 57 67 0.0 0.0 0.00 0.18 0.00 94 1016.2
20260906101536 57 67 0.0 0.0 0.00 0.18 0.00 94 1016.2
20260906100035 57 68 0.0 0.0 0.00 0.18 0.00 94 1016.1
20260906094554 57 67 0.0 0.0 0.00 0.18 0.00 94 1016.0
20260906093042 57 67 0.0 0.0 0.00 0.18 0.00 93 1016.1
20260906091531 57 68 0.0 0.0 0.00 0.18 0.00 94 1015.9
20260906090032 57 67 0.0 0.0 0.00 0.18 0.00 93 1016.0
20260906084529 57 67 0.0 0.0 0.00 0.18 0.00 93 1016.0
20260906083041 58 67 0.0 0.0 0.00 0.18 0.00 93 1015.6
20260906081532 58 68 0.0 0.0 0.00 0.18 0.00 93 1015.6
20260906080031 58 67 0.0 0.0 0.00 0.18 0.00 93 1015.4
20260906074527 58 67 0.0 0.0 0.00 0.18 0.00 93 1015.2
20260906073025 58 67 0.0 0.0 0.00 0.18 0.00 93 1015.1
20260906071519 58 67 0.0 0.0 0.00 0.18 0.00 93 1015.2
20260906070018 59 67 0.0 0.0 0.00 0.18 0.00 93 1015.1
20260906064517 59 67 0.0 0.0 0.00 0.18 0.00 92 1015.2
20260906063018 59 67 0.0 0.0 0.00 0.18 0.00 92 1015.2
20260906061513 59 67 0.0 0.0 0.00 0.18 0.00 92 1015.0
20260906060011 60 67 0.0 0.0 0.00 0.18 0.00 92 1015.0
20260906054510 60 68 0.0 0.0 0.00 0.18 0.00 92 1015.0
20260906053010 60 67 0.0 0.0 0.00 0.18 0.00 92 1015.0
20260906051508 60 68 0.0 0.0 0.00 0.18 0.00 92 1015.0
20260906050006 60 67 0.0 0.0 0.00 0.18 0.00 91 1015.2
20260906044505 61 67 0.0 0.0 0.00 0.18 0.00 91 1015.1
20260906043004 61 67 0.0 0.0 0.00 0.18 0.00 91 1014.9
20260906041502 61 67 0.0 0.0 0.00 0.18 0.00 91 1015.1
20260906040106 61 67 0.0 0.0 0.00 0.18 0.18 91 1015.2
20260906034604 62 67 0.0 0.0 0.00 0.18 0.18 90 1015.1
20260906033059 62 67 0.0 0.0 0.00 0.18 0.18 90 1015.0
20260906031557 62 67 0.0 0.0 0.00 0.18 0.18 89 1015.2
20260906030101 63 68 0.0 0.0 0.00 0.18 0.18 89 1015.0
20260906024558 63 67 0.0 0.0 0.00 0.18 0.18 88 1014.9
20260906023052 64 67 0.0 0.0 0.00 0.18 0.18 88 1014.8
20260906021549 64 67 0.0 0.0 0.00 0.18 0.18 86 1014.6
20260906020047 64 67 0.0 0.0 0.00 0.18 0.18 85 1014.6
20260906014615 65 67 0.0 0.0 0.00 0.18 0.18 83 1014.5
20260906013048 65 67 0.0 0.0 0.00 0.18 0.18 81 1014.4
20260906011542 66 67 0.0 0.0 0.00 0.18 0.18 81 1014.5
20260906010044 66 67 0.0 0.0 0.00 0.18 0.18 78 1014.3
20260906004537 67 67 0.0 0.0 0.00 0.18 0.18 77 1014.0
20260906003034 68 67 0.0 0.0 0.00 0.18 0.18 77 1014.1
20260906001534 68 67 0.0 0.0 0.00 0.18 0.18 76 1014.0
20260906000037 69 67 0.0 0.0 0.00 0.18 0.18 75 1013.9
20260905234535 70 68 0.0 0.0 0.00 0.18 0.18 73 1013.6
20260905233032 71 67 0.0 0.0 0.00 0.18 0.18 72 1013.7
20260905231531 72 77 0.0 3.0 0.00 0.18 0.18 66 1013.6
20260905230030 72 64 0.0 6.0 0.00 0.18 0.18 65 1013.5
20260905224530 72 94 0.0 7.0 0.00 0.18 0.18 68 1013.5
20260905223029 73 246 0.0 6.0 0.00 0.18 0.18 70 1013.4
20260905221528 73 37 1.0 9.0 0.00 0.18 0.18 70 1013.3
20260905220028 73 81 2.0 12.0 0.00 0.18 0.18 69 1013.2
20260905214530 74 32 1.0 9.0 0.00 0.18 0.18 71 1012.9
20260905213026 74 69 2.0 9.0 0.00 0.18 0.18 71 1012.9
20260905211534 73 250 0.0 8.0 0.00 0.18 0.18 75 1012.8
20260905210024 73 42 0.0 5.0 0.00 0.18 0.18 75 1012.8
20260905204528 73 355 1.0 9.0 0.00 0.18 0.18 74 1012.9
20260905203022 74 77 0.0 8.0 0.00 0.18 0.18 75 1013.0
20260905201520 75 109 0.0 6.0 0.00 0.18 0.18 76 1013.0
20260905200021 76 51 3.0 7.0 0.00 0.18 0.18 76 1013.1
20260905194520 76 85 0.0 7.0 0.00 0.18 0.18 76 1013.0
20260905193018 77 59 0.0 6.0 0.00 0.18 0.18 81 1012.9
20260905191516 77 13 0.0 4.0 0.00 0.18 0.18 81 1012.9
20260905190014 76 43 0.0 1.0 0.00 0.19 0.18 84 1012.9
20260905184514 76 38 0.0 5.0 0.00 0.19 0.18 84 1013.1
20260905183012 76 73 0.0 5.0 0.00 0.19 0.18 86 1013.2
20260905181511 76 5 0.0 5.0 0.00 0.19 0.18 87 1013.1
20260905180014 75 302 0.0 2.0 0.00 0.19 0.18 89 1013.2
20260905174508 75 24 0.0 2.0 0.00 0.19 0.18 90 1013.2
20260905173006 74 103 0.0 0.0 0.00 0.19 0.18 92 1013.2
20260905171505 74 99 0.0 0.0 0.00 0.19 0.18 93 1013.3
20260905170004 74 98 0.0 0.0 0.00 0.22 0.18 94 1013.4
20260905164504 74 98 0.0 3.0 0.00 0.22 0.18 93 1013.4
20260905163004 74 58 0.0 1.0 0.01 0.22 0.18 94 1013.5
20260905161502 74 95 0.0 0.0 0.18 0.22 0.18 95 1013.6
20260905160001 74 95 0.0 0.0 0.18 0.24 0.18 95 1013.7
20260905154618 73 96 0.0 0.0 0.18 0.24 0.18 95 1013.7
20260905153059 73 96 0.0 0.0 0.17 0.23 0.17 94 1013.6
20260905151603 73 78 0.0 0.0 0.00 0.06 0.00 94 1013.4
20260905150056 73 78 0.0 2.0 0.00 0.10 0.00 94 1013.3